Lapse_Rate
5.6 5.7 5.8 6.0 6.0 6.1 6.1 6.1 6.2 6.3 6.5 6.7 6.7 6.7 6.8 6.9 7.0 7.1 7.2 7.1 7.2 7.3 7.2 7.2 7.1 7.1 6.9 6.9 6.8 6.9 6.9 6.9 6.7 6.7 6.8 6.7 6.8 6.7 6.7 6.7 6.6 6.6 6.6 6.6 6.6 6.6 6.7
5.5 5.5 5.7 5.9 5.9 5.9 6.0 6.1 6.2 6.3 6.5 6.6 6.8 6.9 6.9 7.1 7.1 7.1 7.1 7.2 7.2 7.2 7.3 7.2 7.1 7.1 7.0 7.0 7.0 7.1 6.8 6.8 6.7 6.9 6.7 6.7 6.8 6.8 6.7 6.6 6.6 6.7 6.7 6.7 6.8 6.8 7.0
5.8 5.7 5.5 5.7 5.9 5.9 5.9 6.0 6.1 6.2 6.4 6.5 6.8 6.9 7.0 7.1 7.2 7.2 7.1 7.2 7.3 7.3 7.3 7.4 7.3 7.1 7.1 6.9 7.0 6.9 6.7 6.7 6.7 6.7 6.7 6.8 6.8 6.8 6.8 6.6 6.7 6.7 6.8 6.8 7.0 7.1 7.2
5.7 5.5 5.5 5.7 5.7 5.8 6.0 6.0 6.0 6.1 6.3 6.6 6.7 6.9 7.0 7.2 7.3 7.3 7.4 7.4 7.3 7.3 7.4 7.6 7.5 7.3 7.3 7.3 7.1 7.0 6.8 6.7 6.6 6.7 6.8 6.8 6.9 6.8 6.8 6.8 6.9 6.8 6.8 7.0 7.4 7.4 7.4
5.5 5.4 5.2 5.7 5.5 5.6 5.7 5.9 5.9 6.1 6.2 6.5 6.8 7.0 7.1 7.2 7.4 7.4 7.4 7.5 7.5 7.4 7.4 7.4 7.4 7.3 7.2 7.4 7.2 6.9 6.8 6.7 6.6 6.7 6.8 6.8 6.8 6.8 6.8 6.8 6.7 6.8 7.1 7.2 7.2 7.3 7.4
5.3 5.3 5.3 5.5 5.3 5.3 5.4 5.4 5.7 5.9 6.1 6.4 6.7 6.9 7.2 7.4 7.5 7.5 7.5 7.5 7.6 7.6 7.6 7.5 7.7 7.5 7.9 7.6 7.3 7.0 6.7 6.6 6.7 6.7 6.7 6.7 6.7 6.8 6.9 6.8 6.9 7.2 7.2 7.2 7.3 7.3 7.3
5.3 5.3 5.4 5.1 5.0 5.0 5.2 5.3 5.6 5.9 6.1 6.4 6.8 7.0 7.3 7.6 7.7 7.6 7.5 7.5 7.5 7.5 7.7 7.6 7.6 7.5 7.6 7.4 7.2 7.0 6.8 6.6 6.6 6.7 6.7 6.6 6.7 7.0 7.3 6.9 6.8 6.8 7.0 7.1 7.2 7.1 7.1
4.6 4.6 4.6 4.6 4.6 4.8 4.8 5.2 5.5 5.8 6.1 6.5 6.9 7.1 7.6 7.9 7.9 7.7 7.6 7.5 7.6 7.5 7.6 7.7 7.6 7.4 7.2 7.3 7.1 7.0 6.8 6.8 6.8 6.8 6.7 6.6 6.9 6.8 6.8 6.8 6.8 6.8 6.7 7.0 7.1 7.1 7.0
4.2 4.3 4.4 4.4 4.6 4.8 4.9 5.2 5.6 5.9 6.3 6.7 7.0 7.2 7.6 7.9 7.8 7.8 7.7 7.6 7.6 7.5 7.4 7.9 7.6 7.4 7.2 7.1 6.9 6.9 6.9 6.9 6.8 6.7 6.7 6.6 6.8 6.9 6.8 6.8 6.8 6.8 6.8 6.9 6.8 6.9 6.8
4.2 4.4 4.5 4.7 4.8 5.0 5.1 5.4 5.8 6.1 6.4 6.8 7.1 7.4 7.5 7.7 7.8 7.8 7.8 7.7 7.6 7.6 7.4 7.8 8.0 7.4 7.2 7.0 6.8 6.7 6.6 6.6 6.6 6.7 6.6 6.5 6.6 6.7 6.8 6.7 6.7 6.7 6.7 6.7 6.7 6.6 6.6
4.7 4.7 4.9 5.1 5.2 5.3 5.5 5.7 6.1 6.5 6.7 6.8 7.1 7.4 7.5 7.6 7.6 7.7 7.9 7.8 7.7 7.6 5.8 7.6 7.4 7.5 7.3 7.1 6.9 6.8 6.5 6.4 6.5 6.6 6.6 6.7 6.7 6.7 6.6 6.7 6.6 6.7 6.7 6.7 6.6 6.5 6.2
5.0 5.2 5.3 5.5 5.6 5.6 5.7 5.9 6.1 6.4 6.7 6.9 7.2 7.2 7.3 7.4 7.4 7.8 7.8 7.8 7.6 7.5 6.3 7.7 7.4 7.2 7.2 6.9 6.7 6.7 6.5 6.3 6.4 6.4 6.4 6.5 6.5 6.5 6.5 6.6 6.6 6.5 6.4 6.4 6.3 6.1 4.3
5.6 5.8 5.6 5.6 5.6 6.0 6.2 6.4 6.4 6.5 6.7 7.0 7.2 7.1 7.1 7.3 7.4 7.6 7.8 7.7 7.5 7.3 7.6 7.6 7.7 7.5 7.2 6.9 6.7 6.7 6.7 6.7 6.6 6.2 6.4 6.5 6.4 6.5 6.5 6.5 6.4 6.4 6.4 5.8 4.4 3.6 3.8
6.0 5.8 5.4 5.6 5.9 6.1 6.3 6.6 6.8 6.9 7.0 7.2 7.3 7.1 6.7 6.5 7.2 7.5 7.5 7.4 7.3 7.7 8.0 8.1 8.0 7.7 7.4 7.1 7.0 7.0 6.9 6.8 6.8 6.8 6.9 6.7 6.5 6.6 6.5 6.4 6.6 6.4 6.3 6.4 4.2 3.9 4.7
6.3 6.0 5.9 6.0 6.2 6.3 6.4 6.5 6.8 7.1 7.3 7.4 7.3 7.1 6.9 6.9 7.0 7.4 7.3 6.9 7.4 7.8 8.0 8.2 8.1 7.5 7.4 7.3 7.2 7.1 7.1 7.1 7.2 7.1 6.9 7.0 6.7 6.7 6.4 6.3 6.2 6.0 5.9 6.4 6.1 4.6 4.2
6.2 6.2 6.3 6.3 6.1 6.1 6.4 6.6 6.7 7.0 7.2 6.7 7.3 7.2 7.0 6.8 7.1 7.1 6.9 7.3 7.7 7.9 8.2 8.3 8.1 7.8 7.7 7.6 7.4 7.3 7.3 7.4 7.2 7.2 7.0 7.0 6.8 6.7 6.4 6.2 6.1 6.2 6.3 6.1 6.2 3.5 3.9
6.2 6.2 6.2 6.1 6.1 6.4 6.3 6.4 6.3 6.7 6.9 7.0 6.9 6.6 6.3 6.3 6.7 6.8 6.9 7.3 7.6 7.9 8.1 8.1 8.1 7.9 7.7 7.7 7.6 7.5 7.4 7.4 7.3 7.3 6.9 6.8 6.8 6.2 6.1 6.3 6.5 6.2 6.1 6.3 6.4 6.0 3.2
5.7 5.7 5.8 5.6 5.2 5.5 5.8 6.1 5.8 6.2 6.0 6.2 6.1 6.3 5.9 6.1 6.2 6.4 7.2 7.4 7.6 7.8 8.0 8.0 7.8 7.9 7.8 7.7 7.5 7.4 7.4 7.3 7.2 7.0 6.9 6.8 6.5 6.5 6.6 6.5 6.4 6.4 6.3 6.4 6.6 5.5 5.4
5.6 5.7 5.8 5.2 4.9 4.9 4.9 4.8 5.5 5.8 5.9 5.7 6.2 6.6 6.0 6.0 6.0 6.8 7.2 7.3 7.3 7.7 7.7 7.8 7.7 7.7 7.8 7.4 7.1 7.2 7.2 7.1 7.0 6.9 6.7 6.7 6.3 6.3 6.0 6.0 6.1 6.1 6.4 6.5 6.3 6.0 5.7
5.5 5.4 5.3 5.0 4.5 4.8 4.6 4.9 4.6 4.9 5.9 5.3 5.5 6.2 6.2 6.0 6.8 6.9 7.0 7.2 7.3 7.5 7.6 7.6 7.6 7.6 7.5 7.3 7.1 7.1 6.9 6.9 6.8 6.6 6.4 6.4 6.3 6.6 6.2 6.6 6.4 6.2 6.3 6.2 5.8 5.6 6.0
5.0 4.9 5.2 4.9 5.1 5.1 4.9 4.9 4.7 5.1 4.7 5.2 5.1 5.6 6.3 6.6 6.5 6.9 7.0 7.1 7.2 7.3 7.2 7.3 7.2 7.2 7.2 7.1 7.0 6.7 6.8 6.6 6.4 6.3 6.2 6.0 6.1 6.3 6.3 6.1 6.0 6.0 6.1 6.0 5.9 6.0 5.8
4.5 4.5 4.4 4.5 4.9 5.3 5.4 5.5 5.5 5.8 5.6 5.3 5.4 5.4 5.7 6.4 6.6 6.6 7.0 7.1 7.0 6.9 6.9 7.0 7.0 7.1 6.9 6.7 6.8 6.7 6.5 6.2 6.3 6.2 6.1 6.0 5.9 6.2 5.9 6.1 6.1 6.2 6.4 6.5 6.5 6.5 6.1
4.7 4.5 4.7 4.7 5.0 5.3 5.4 5.6 6.0 6.0 6.1 6.0 6.2 6.1 6.3 6.3 6.5 6.2 6.6 6.6 6.6 6.7 6.7 6.9 6.9 6.8 6.5 6.3 6.1 6.0 6.2 6.3 6.3 6.3 6.2 6.0 6.1 6.1 5.8 6.3 5.8 5.1 7.1 7.0 7.1 7.1 6.9
4.9 5.3 5.6 5.6 5.8 5.8 5.8 5.8 5.9 6.1 6.1 6.2 6.3 6.2 6.1 6.3 6.6 6.6 6.6 6.6 6.6 6.7 6.6 6.7 6.5 6.5 6.7 6.7 6.7 6.6 6.5 6.4 6.3 6.3 6.2 6.3 6.2 6.0 5.8 6.0 3.5 6.3 6.6 7.2 7.3 7.3 7.2
5.6 5.8 5.8 5.9 5.9 5.9 6.0 5.9 5.9 6.0 6.1 6.1 6.2 6.2 6.2 6.3 6.5 6.5 6.6 6.6 6.6 6.5 6.5 6.7 6.9 7.0 7.1 7.1 6.9 6.7 6.6 6.4 6.6 6.5 6.5 6.4 6.2 5.9 5.8 5.5 6.3 6.2 6.6 7.0 7.2 7.1 6.8
5.9 6.1 6.1 6.1 6.2 6.0 6.1 6.2 6.1 6.2 6.2 6.2 6.2 6.3 6.5 6.6 6.9 6.9 7.0 7.0 7.1 7.4 7.6 7.6 7.5 7.3 7.1 6.8 6.5 6.5 6.8 6.7 6.6 6.5 6.9 6.4 6.1 5.7 5.2 5.3 3.9 6.2 6.7 6.7 6.7 6.0 6.6
6.1 6.2 6.1 6.1 6.2 6.2 6.3 6.6 6.7 7.0 6.9 7.1 7.4 7.4 7.5 7.6 7.7 7.9 8.0 8.0 7.9 7.8 7.5 7.5 7.3 7.2 7.0 6.8 6.6 6.6 6.8 6.8 6.7 6.8 7.1 6.6 6.0 5.6 5.2 5.4 6.0 6.3 6.2 6.4 5.6 6.6 6.2
6.2 6.4 6.5 6.6 6.7 6.8 7.0 7.1 7.3 7.4 7.6 7.8 8.0 8.1 8.0 7.9 7.9 7.9 7.8 7.9 7.8 7.8 7.7 7.5 7.3 7.3 7.2 6.8 6.6 6.7 6.7 6.7 6.6 6.6 6.9 7.0 6.8 6.1 5.2 4.6 4.6 6.4 6.1 6.1 6.3 5.9 5.8
6.7 6.9 7.0 7.1 7.3 7.4 7.4 7.6 7.8 7.9 8.1 8.1 8.0 8.1 8.1 8.0 8.0 7.9 7.9 7.8 7.8 7.7 7.5 7.4 7.2 7.0 7.1 7.0 6.9 6.9 6.8 6.5 6.6 6.5 6.4 6.1 6.4 6.8 6.2 6.6 6.5 6.4 6.2 6.0 6.0 6.0 5.9
Wind_Speed
10 10 11 12 12 13 13 14 14 15 14 13 11 12 12 11 9 7 6 7 7 6 6 3 3 5 1 1 6 2 4 5 5 3 4 3 4 4 3 3 4 2 2 2 1 1 1
11 11 11 12 13 13 14 13 14 14 15 15 15 13 13 11 9 7 7 6 4 5 5 3 2 2 2 4 1 4 6 5 3 3 3 3 4 5 3 2 3 2 2 1 0 1 1
11 12 12 12 12 12 13 14 13 13 14 15 15 14 13 12 10 9 6 6 4 2 2 3 4 2 2 5 2 5 4 2 4 3 4 2 3 2 3 3 2 3 1 2 2 1 0
10 11 13 13 13 13 12 13 13 13 14 14 15 15 14 11 10 9 8 6 5 2 2 3 4 1 5 1 2 3 2 2 3 3 3 3 2 4 3 3 5 3 4 1 1 3 0
10 12 13 14 14 14 14 13 13 13 13 12 13 15 15 12 8 8 8 6 1 3 4 4 1 1 4 2 2 2 1 3 3 3 3 3 4 3 4 5 4 5 2 4 3 4 2
10 12 13 14 14 15 15 15 15 15 14 14 14 13 15 13 10 6 4 2 6 5 4 2 1 1 1 3 2 2 1 4 3 4 4 4 4 3 3 3 5 5 4 4 3 2 0
8 11 13 14 14 15 15 15 15 15 15 14 13 14 13 13 10 4 3 3 3 3 1 5 2 2 2 1 1 2 1 3 3 4 4 1 3 6 10 5 3 5 3 2 2 1 2
9 11 13 14 14 15 15 15 15 15 15 15 15 14 13 13 8 2 2 2 2 1 3 4 2 1 0 3 3 0 2 4 3 4 4 4 6 5 3 5 4 2 2 4 1 1 1
9 11 13 14 15 14 15 15 16 16 15 15 14 14 12 11 3 2 2 3 2 1 1 2 3 3 2 4 2 6 4 3 3 5 5 6 2 4 4 4 5 3 5 4 3 2 3
10 11 12 13 14 15 16 16 16 15 16 15 15 14 12 10 1 2 2 2 1 1 3 3 3 3 2 4 1 0 0 2 1 8 7 3 1 3 3 3 5 4 1 3 4 4 3
8 10 11 13 14 14 15 16 17 16 16 15 14 12 10 5 2 2 1 1 1 3 2 2 2 1 1 4 5 2 1 2 5 5 5 3 1 3 2 2 0 2 4 4 3 5 3
8 10 11 13 14 15 16 17 18 17 16 14 14 12 8 2 0 1 2 2 2 5 6 3 3 4 4 1 1 2 2 4 3 4 5 3 1 3 3 2 2 7 6 6 5 3 2
9 11 12 14 15 16 16 16 17 18 17 16 14 11 3 2 1 3 2 2 3 4 1 4 4 4 3 4 2 3 3 3 5 5 4 2 1 1 2 5 4 4 5 2 4 3 5
10 12 14 15 16 17 18 18 18 18 17 15 13 9 3 1 3 4 2 3 4 4 5 3 3 3 5 5 2 3 4 3 2 3 3 6 4 3 3 1 6 3 5 5 7 4 2
11 13 15 16 17 19 19 20 19 18 15 12 10 1 1 2 6 2 3 2 7 5 3 8 3 3 4 2 4 3 5 5 6 7 7 5 2 1 3 1 2 4 3 3 7 2 3
13 14 15 17 18 19 20 21 20 17 13 8 1 1 1 2 5 3 2 5 3 1 3 2 8 4 7 5 5 6 6 2 5 3 1 4 3 1 1 1 3 3 3 3 3 2 3
13 15 16 17 19 21 23 21 19 14 10 3 2 0 2 2 1 3 3 6 2 0 0 4 6 4 3 6 7 5 4 1 2 3 3 3 3 0 2 4 6 1 1 3 3 3 5
16 17 18 18 20 21 20 21 16 13 7 3 2 1 1 1 2 1 3 2 1 2 1 1 2 2 5 6 4 5 7 0 4 6 6 1 4 3 2 1 0 1 4 4 4 5 2
18 19 19 21 21 21 22 24 25 13 1 2 2 2 1 2 3 3 2 0 0 3 2 3 3 1 1 5 3 3 4 1 3 3 5 5 0 2 2 1 1 1 2 3 3 3 5
20 19 19 20 24 25 24 28 24 14 4 2 1 1 2 2 1 4 5 4 3 1 1 1 2 2 3 2 3 5 3 1 2 2 6 2 2 4 6 3 4 2 5 4 3 3 4
18 21 27 29 26 28 30 27 25 19 3 1 2 1 1 3 3 2 2 4 4 4 1 1 1 2 4 4 3 3 3 3 4 2 3 3 4 1 1 2 2 3 5 8 6 5 6
21 24 25 25 26 29 28 27 26 23 3 2 2 2 2 0 1 4 2 5 7 2 3 3 3 3 2 3 2 6 6 4 3 2 3 3 3 3 3 2 4 3 5 8 8 3 2
21 22 23 25 27 28 27 28 29 26 9 2 1 3 3 1 2 3 3 3 6 7 0 2 2 4 4 3 4 4 4 5 4 6 3 3 5 3 3 3 2 5 9 7 4 3 7
23 24 25 26 26 27 28 29 30 26 12 2 2 1 3 2 2 3 3 2 3 1 5 2 3 3 3 6 6 5 9 9 8 6 2 5 4 3 3 2 2 6 2 4 5 4 3
22 23 24 24 26 26 26 27 29 25 15 3 1 2 2 1 1 1 4 4 4 4 3 3 3 2 5 4 3 4 3 2 3 5 3 2 4 3 4 3 5 1 5 6 7 7 6
22 23 24 26 29 31 31 29 28 27 15 3 2 2 1 4 3 1 3 2 3 2 2 2 3 1 3 2 2 4 5 4 4 2 3 4 5 4 3 5 7 3 2 3 4 5 7
23 23 24 25 25 27 28 28 26 27 20 3 2 2 2 3 1 1 2 3 5 3 3 1 3 2 2 2 2 3 4 4 5 8 5 2 2 5 3 3 8 4 4 3 6 6 5
24 24 25 26 26 27 29 29 30 30 27 4 1 6 2 2 2 4 4 2 2 2 4 3 4 2 2 2 3 3 3 4 3 4 6 7 7 4 3 2 8 3 4 6 2 4 5
26 25 24 25 26 25 27 27 27 26 28 7 3 4 4 4 2 1 3 2 2 1 3 2 2 3 3 3 1 3 2 2 2 3 2 1 6 5 8 5 1 3 3 2 1 4 4
Wind_Direction
335 336 337 339 343 342 343 343 345 344 343 343 342 338 338 333 325 319 315 312 313 308 295 289 317 318 2 80 250 152 142 117 101 114 142 132 131 139 185 167 128 181 179 99 40 92 106
329 332 334 335 339 341 340 342 344 345 343 341 340 341 337 334 323 315 312 315 316 313 301 277 257 270 222 228 139 122 121 118 152 130 138 139 183 192 125 161 155 147 113 91 24 347 14
325 329 331 332 335 337 338 339 341 343 344 341 338 338 337 332 325 316 312 303 288 281 277 254 220 214 79 243 65 140 149 134 160 138 142 167 135 111 120 116 122 106 16 333 216 209 89
319 323 326 326 330 332 335 336 338 341 343 344 341 337 335 331 323 315 309 303 285 216 187 211 197 160 231 127 137 135 149 98 91 88 102 120 119 101 80 116 28 72 56 12 268 154 33
318 322 323 326 328 332 333 333 334 336 337 339 340 338 333 329 322 315 312 308 203 145 115 128 119 169 263 132 154 158 186 136 101 72 59 90 65 93 56 94 21 15 217 209 301 194 107
318 321 321 325 329 330 330 331 334 335 336 337 336 340 334 324 320 314 314 259 123 113 97 150 287 337 206 204 130 129 36 132 119 110 68 57 57 85 52 107 212 203 211 237 243 199 122
317 319 319 323 328 328 328 329 332 332 332 333 335 334 336 323 314 297 115 77 30 336 38 178 203 262 142 112 151 59 62 110 95 68 145 30 117 201 207 186 128 131 175 196 193 79 209
326 323 321 323 327 327 327 328 330 330 330 331 332 332 333 322 308 224 109 174 206 269 289 202 228 236 137 180 113 151 134 138 144 164 120 51 234 218 139 160 168 175 196 250 298 89 159
334 327 325 326 327 327 326 327 327 326 327 328 328 326 327 319 293 90 183 235 150 217 272 215 183 185 204 135 193 186 139 140 141 144 182 161 218 138 147 144 148 180 179 192 189 91 60
334 330 328 328 328 329 329 329 326 326 324 327 326 323 321 317 199 205 238 129 125 104 30 227 216 227 121 142 185 302 75 147 132 186 159 225 328 147 141 169 132 204 206 109 121 91 223
334 332 333 332 331 330 332 327 325 326 324 324 321 314 310 278 211 157 217 147 141 63 2 154 169 200 125 151 133 4 320 62 165 149 119 236 133 149 159 155 179 180 70 87 82 94 52
341 337 332 334 332 336 333 329 325 325 322 321 320 315 310 170 212 226 141 105 62 57 250 172 132 164 126 113 98 114 83 42 120 99 50 89 43 44 110 80 51 155 75 52 55 78 34
348 341 342 340 339 335 328 326 326 324 322 322 318 311 289 192 233 132 110 67 68 163 194 186 182 168 156 153 147 147 155 124 150 135 199 46 47 47 63 84 24 75 78 356 353 6 219
347 342 342 337 331 335 335 330 327 322 320 320 313 303 243 220 142 118 71 70 192 230 200 114 123 101 167 159 166 133 122 170 232 105 118 162 282 162 2 79 174 173 148 158 202 199 239
359 352 345 344 344 340 335 330 327 320 317 316 315 262 234 230 136 85 86 123 209 203 150 146 79 145 212 185 143 132 190 198 195 183 176 143 198 34 45 29 69 190 192 132 102 52 53
7 356 356 353 350 345 341 335 329 324 322 312 285 197 144 88 122 76 89 244 222 136 120 147 189 168 182 192 158 174 184 188 178 189 133 189 106 356 144 124 41 138 161 85 1 138 245
10 7 2 360 359 353 350 342 329 329 329 291 223 136 38 58 84 61 205 230 209 17 227 187 203 152 180 175 174 192 193 166 159 124 105 123 95 187 128 195 178 103 0 38 111 118 168
14 12 7 3 7 359 350 347 342 354 353 108 82 169 340 208 122 266 210 213 85 173 283 213 111 120 170 163 149 196 200 128 156 153 157 162 138 157 170 311 249 76 183 162 132 243 82
22 14 9 8 4 2 1 5 2 359 303 278 151 147 131 70 189 226 284 250 154 183 211 176 153 177 151 166 147 141 129 20 160 130 162 192 268 84 344 30 71 192 185 104 108 86 201
12 11 14 11 12 6 5 11 5 348 234 240 140 90 33 72 325 157 169 208 201 311 145 81 136 118 122 127 20 158 128 84 88 99 82 122 109 157 189 180 122 154 186 165 123 122 173
13 17 16 12 7 9 9 4 357 -0 215 144 351 180 197 210 251 179 131 136 151 192 64 106 42 237 167 137 124 158 118 115 43 90 53 93 154 118 53 44 85 190 161 188 193 193 166
20 20 17 15 12 7 7 5 5 5 332 103 105 148 63 51 173 135 160 225 177 160 152 205 193 141 129 158 182 182 136 181 178 77 87 13 155 84 334 92 64 273 227 196 212 243 298
26 24 20 14 10 7 8 8 10 8 357 75 35 36 113 294 64 100 234 197 195 146 348 45 152 125 120 126 98 81 64 73 119 141 122 97 130 97 261 5 16 328 229 181 179 219 151
23 21 21 19 15 12 11 10 9 10 21 76 45 76 108 236 167 209 164 127 148 160 141 50 38 107 138 108 110 63 54 60 58 34 71 128 104 93 207 23 327 245 184 174 171 220 196
22 18 17 18 15 14 14 15 14 13 19 78 35 139 130 144 150 130 116 109 86 43 65 83 29 37 136 119 77 81 9 47 47 30 18 28 121 103 144 203 306 187 213 169 160 255 192
20 17 14 15 14 12 12 11 13 14 18 82 69 298 124 124 223 73 132 160 151 110 34 60 36 85 83 91 98 162 207 190 192 95 49 62 59 115 122 160 217 259 169 159 126 301 187
18 15 13 12 13 14 12 11 12 14 15 83 56 17 90 105 274 16 161 175 131 99 119 143 179 133 23 117 129 173 230 158 177 175 178 113 46 172 175 237 287 236 160 159 106 241 142
16 14 12 9 9 10 9 8 9 10 10 35 66 12 66 95 29 11 4 118 99 143 152 188 78 320 55 144 155 206 149 222 101 163 177 164 153 190 100 128 279 132 83 172 184 39 108
12 9 8 7 6 5 6 6 7 8 9 13 51 359 346 77 112 53 83 82 61 75 128 24 173 161 183 91 65 98 160 77 120 242 26 272 183 179 183 211 65 13 64 17 81 124 111